Location: Newark
(45.9167°N, 5.5000°E)
Time: 13:36:46
(UTC+00:00)

N. Korean satellite - Visible Passes

Search period start: 25 January 2020 00:00
Search period end: 04 February 2020 00:00
Orbit: 454 x 507 km, 97.2° (Epoch: 24 January)

Date Brightness Start Highest point End Pass type
(mag) Time Alt. Az. Time Alt. Az. Time Alt. Az.
25 Jan 6.4 05:44:22 10° N 05:47:55 66° WNW 05:51:30 10° SSW visible
26 Jan 7.2 05:18:53 10° NNE 05:22:25 58° E 05:26:00 10° S visible
26 Jan 9.7 17:31:02 10° SW 17:33:24 18° W 17:35:48 10° NW visible
27 Jan 8.7 04:53:42 10° NE 04:56:51 28° E 05:00:00 10° SSE visible
27 Jan 7.8 06:27:20 10° NNW 06:30:06 21° WNW 06:32:53 10° WSW visible
27 Jan 8.4 17:04:36 10° SSW 17:07:45 35° W 17:10:57 10° NNW visible
28 Jan 9.8 04:29:04 10° NE 04:31:11 15° E 04:33:17 10° SE visible
28 Jan 7.0 06:01:21 10° N 06:04:44 40° WNW 06:08:09 10° SW visible
29 Jan 6.5 05:35:40 10° N 05:39:18 85° WNW 05:42:57 10° SSW visible
29 Jan 10.1 17:49:19 10° WSW 17:50:24 11° W 17:51:30 10° WNW visible
30 Jan 7.7 05:10:17 10° NNE 05:13:46 45° E 05:17:17 10° S visible
30 Jan 9.4 17:21:57 10° SSW 17:24:41 22° W 17:27:27 10° NW visible
31 Jan 9.1 04:45:13 10° NE 04:48:10 23° E 04:51:07 10° SSE visible
31 Jan 7.6 06:18:27 10° NNW 06:21:30 26° WNW 06:24:35 10° SW visible
01 Feb 10.1 04:20:58 10° ENE 04:22:28 12° E 04:23:55 10° ESE visible
01 Feb 6.7 05:52:35 10° N 05:56:07 51° WNW 05:59:42 10° SSW visible
02 Feb 6.8 05:27:00 10° NNE 05:30:39 76° ESE 05:34:19 10° S visible
02 Feb 9.9 17:39:43 10° SW 17:41:38 14° W 17:43:35 10° WNW visible
03 Feb 8.3 05:01:41 10° NNE 05:05:06 36° E 05:08:31 10° SSE visible
03 Feb 9.0 17:12:57 10° SSW 17:15:57 28° W 17:18:59 10° NW visible
